Hourly Weather Bolshie Shady

Today, 20 June, Sunday

Time Temperature Precipitation Wind Pressure Humidity
00:00 +20°C° 0 mm 6 mps 750 mmHg 87%
01:00 +19°C° 0 mm 6 mps 750 mmHg 89%
02:00 +19°C° 0 mm 5 mps 750 mmHg 90%
03:00 +19°C° 0 mm 5 mps 750 mmHg 91%
04:00 +17°C° 0 mm 5 mps 750 mmHg 91%
05:00 +20°C° 0 mm 5 mps 750 mmHg 87%
06:00 +21°C° 0 mm 5 mps 751 mmHg 84%
07:00 +22°C° 0 mm 5 mps 751 mmHg 80%
08:00 +22°C° 0 mm 5 mps 751 mmHg 73%
09:00 +23°C° 0 mm 5 mps 751 mmHg 66%
10:00 +24°C° 0 mm 6 mps 752 mmHg 60%
11:00 +24°C° 0 mm 6 mps 752 mmHg 56%
12:00 +24°C° 0 mm 7 mps 752 mmHg 52%
13:00 +23°C° 0 mm 7 mps 753 mmHg 48%
14:00 +23°C° 0 mm 7 mps 753 mmHg 49%
15:00 +23°C° 0 mm 6 mps 753 mmHg 50%
16:00 +22°C° 0 mm 6 mps 753 mmHg 51%
17:00 +21°C° 0 mm 5 mps 754 mmHg 54%
18:00 +20°C° 0 mm 5 mps 754 mmHg 58%
19:00 +19°C° 0 mm 4 mps 754 mmHg 61%
20:00 +18°C° 0 mm 3 mps 754 mmHg 64%
21:00 +16°C° 0 mm 3 mps 754 mmHg 66%
22:00 +15°C° 0 mm 2 mps 755 mmHg 69%
23:00 +14°C° 0 mm 2 mps 755 mmHg 68%

Tomorrow, 21 June, Monday

Time Temperature Precipitation Wind Pressure Humidity
00:00 +13°C° 0 mm 2 mps 755 mmHg 67%
01:00 +12°C° 0 mm 1 mps 755 mmHg 67%
02:00 +12°C° 0 mm 1 mps 756 mmHg 67%
03:00 +11°C° 0 mm 1 mps 756 mmHg 67%
04:00 +11°C° 0 mm 1 mps 757 mmHg 67%
05:00 +13°C° 0 mm 1 mps 757 mmHg 64%
06:00 +14°C° 0 mm 1 mps 757 mmHg 61%
07:00 +16°C° 0 mm 1 mps 757 mmHg 58%
08:00 +18°C° 0 mm 1 mps 757 mmHg 54%
09:00 +20°C° 0 mm 1 mps 757 mmHg 50%
10:00 +21°C° 0 mm 1 mps 757 mmHg 45%
11:00 +22°C° 0 mm 1 mps 757 mmHg 46%
12:00 +22°C° 0 mm 1 mps 757 mmHg 46%
13:00 +23°C° 0 mm 2 mps 757 mmHg 47%
14:00 +23°C° 0 mm 2 mps 756 mmHg 50%
15:00 +22°C° 0 mm 3 mps 756 mmHg 52%
16:00 +22°C° 0 mm 4 mps 756 mmHg 55%
17:00 +22°C° 0.1 mm 3 mps 755 mmHg 62%
18:00 +21°C° 0.1 mm 3 mps 755 mmHg 68%
19:00 +20°C° 0.1 mm 2 mps 754 mmHg 75%
20:00 +19°C° 0.2 mm 2 mps 754 mmHg 79%
21:00 +18°C° 0.2 mm 2 mps 754 mmHg 84%
22:00 +18°C° 0.2 mm 1 mps 754 mmHg 89%
23:00 +18°C° 0.1 mm 1 mps 754 mmHg 90%

Day after tomorrow, 22 June, Tuesday

Time Temperature Precipitation Wind Pressure Humidity
00:00 +18°C° 0.1 mm 1 mps 753 mmHg 92%
01:00 +18°C° 0.1 mm 1 mps 753 mmHg 93%
02:00 +18°C° 0.1 mm 1 mps 753 mmHg 94%
03:00 +19°C° 0.1 mm 1 mps 753 mmHg 94%
04:00 +19°C° 0.1 mm 1 mps 753 mmHg 95%
05:00 +20°C° 0 mm 1 mps 753 mmHg 92%
06:00 +21°C° 0 mm 2 mps 753 mmHg 90%
07:00 +23°C° 0 mm 2 mps 753 mmHg 87%
08:00 +25°C° 0 mm 3 mps 753 mmHg 81%
09:00 +26°C° 0 mm 3 mps 753 mmHg 75%
10:00 +28°C° 0 mm 4 mps 753 mmHg 69%
11:00 +29°C° 0.1 mm 4 mps 753 mmHg 64%
12:00 +30°C° 0.1 mm 4 mps 753 mmHg 60%
13:00 +32°C° 0.1 mm 5 mps 753 mmHg 56%
14:00 +32°C° 0 mm 4 mps 753 mmHg 56%
15:00 +32°C° 0 mm 4 mps 753 mmHg 56%
16:00 +32°C° 0 mm 4 mps 753 mmHg 56%
17:00 +30°C° 0.3 mm 3 mps 753 mmHg 62%
18:00 +28°C° 0.3 mm 3 mps 752 mmHg 68%
19:00 +26°C° 0.3 mm 3 mps 752 mmHg 73%
20:00 +25°C° 0 mm 3 mps 752 mmHg 76%
21:00 +24°C° 0 mm 2 mps 752 mmHg 80%
22:00 +23°C° 0 mm 2 mps 752 mmHg 83%
23:00 +21°C° 0.1 mm 2 mps 752 mmHg 84%

23 June, Wednesday

Time Temperature Precipitation Wind Pressure Humidity
00:00 +21°C° 0.1 mm 2 mps 752 mmHg 85%
01:00 +21°C° 0.1 mm 2 mps 752 mmHg 86%
02:00 +20°C° 0 mm 2 mps 752 mmHg 87%
03:00 +20°C° 0 mm 2 mps 753 mmHg 88%
04:00 +20°C° 0 mm 1 mps 753 mmHg 89%
05:00 +20°C° 0 mm 2 mps 753 mmHg 86%
06:00 +23°C° 0 mm 2 mps 753 mmHg 83%
07:00 +24°C° 0 mm 2 mps 753 mmHg 80%
08:00 +25°C° 0 mm 2 mps 753 mmHg 75%
09:00 +26°C° 0 mm 2 mps 753 mmHg 70%
10:00 +28°C° 0 mm 2 mps 753 mmHg 66%
11:00 +28°C° 0 mm 3 mps 753 mmHg 64%
12:00 +29°C° 0 mm 3 mps 753 mmHg 62%
13:00 +30°C° 0 mm 3 mps 753 mmHg 60%
14:00 +30°C° 0.1 mm 3 mps 753 mmHg 61%
15:00 +30°C° 0.1 mm 3 mps 753 mmHg 62%
16:00 +30°C° 0.1 mm 2 mps 753 mmHg 63%
17:00 +28°C° 1.6 mm 2 mps 752 mmHg 70%
18:00 +27°C° 1.6 mm 2 mps 752 mmHg 76%
19:00 +26°C° 1.6 mm 2 mps 752 mmHg 82%
20:00 +24°C° 1.1 mm 2 mps 752 mmHg 86%
21:00 +23°C° 1.1 mm 2 mps 752 mmHg 89%
22:00 +21°C° 1.1 mm 2 mps 752 mmHg 93%
23:00 +20°C° 0 mm 2 mps 752 mmHg 93%

24 June, Thursday

Time Temperature Precipitation Wind Pressure Humidity
00:00 +20°C° 0 mm 1 mps 753 mmHg 93%
01:00 +20°C° 0 mm 1 mps 753 mmHg 93%
02:00 +20°C° 0 mm 1 mps 752 mmHg 93%
03:00 +20°C° 0 mm 1 mps 752 mmHg 93%
04:00 +19°C° 0 mm 1 mps 752 mmHg 92%
05:00 +20°C° 0 mm 1 mps 752 mmHg 90%
06:00 +21°C° 0 mm 1 mps 752 mmHg 87%
07:00 +22°C° 0 mm 1 mps 752 mmHg 85%
08:00 +23°C° 0.1 mm 1 mps 752 mmHg 81%
09:00 +25°C° 0.1 mm 1 mps 752 mmHg 78%
10:00 +26°C° 0.1 mm 1 mps 752 mmHg 74%
11:00 +27°C° 0 mm 2 mps 752 mmHg 71%
12:00 +28°C° 0 mm 2 mps 751 mmHg 67%
13:00 +29°C° 0 mm 3 mps 751 mmHg 64%
14:00 +29°C° 0.2 mm 3 mps 751 mmHg 64%
15:00 +30°C° 0.2 mm 3 mps 750 mmHg 65%
16:00 +30°C° 0.2 mm 4 mps 750 mmHg 65%
17:00 +27°C° 2.9 mm 4 mps 749 mmHg 71%
18:00 +25°C° 2.9 mm 5 mps 749 mmHg 77%
19:00 +21°C° 2.9 mm 5 mps 749 mmHg 83%
20:00 +21°C° 2.2 mm 4 mps 749 mmHg 86%
21:00 +20°C° 2.2 mm 2 mps 749 mmHg 90%
22:00 +21°C° 2.2 mm 1 mps 749 mmHg 93%
23:00 +21°C° 0.3 mm 1 mps 749 mmHg 94%

25 June, Friday

Time Temperature Precipitation Wind Pressure Humidity
00:00 +20°C° 0.3 mm 2 mps 748 mmHg 94%
01:00 +19°C° 0.3 mm 2 mps 748 mmHg 95%
02:00 +19°C° 0 mm 2 mps 748 mmHg 95%
03:00 +19°C° 0 mm 2 mps 748 mmHg 96%
04:00 +18°C° 0 mm 3 mps 748 mmHg 96%
05:00 +19°C° 0 mm 3 mps 747 mmHg 94%
06:00 +20°C° 0 mm 3 mps 747 mmHg 92%
07:00 +21°C° 0 mm 4 mps 747 mmHg 89%
08:00 +23°C° 0 mm 4 mps 747 mmHg 84%
09:00 +25°C° 0 mm 4 mps 747 mmHg 78%
10:00 +27°C° 0 mm 5 mps 747 mmHg 73%
11:00 +28°C° 0 mm 5 mps 747 mmHg 69%
12:00 +29°C° 0 mm 6 mps 747 mmHg 66%
13:00 +29°C° 0 mm 6 mps 747 mmHg 63%
14:00 +29°C° 0.7 mm 6 mps 747 mmHg 68%
15:00 +28°C° 0.7 mm 6 mps 747 mmHg 73%
16:00 +27°C° 0.7 mm 5 mps 747 mmHg 78%
17:00 +27°C° 0.3 mm 4 mps 747 mmHg 79%
18:00 +27°C° 0.3 mm 4 mps 746 mmHg 80%
19:00 +26°C° 0.3 mm 3 mps 746 mmHg 81%
20:00 +25°C° 0 mm 2 mps 747 mmHg 84%
21:00 +23°C° 0 mm 2 mps 747 mmHg 86%
22:00 +22°C° 0 mm 1 mps 747 mmHg 89%
23:00 +20°C° 0.3 mm 2 mps 747 mmHg 90%
Show more